EHI
0 0 0 0 0 0 0 0 0 0 0 0 0 0 0 0 0 0 0 0 0 0 0 0 0 0 0 0 0 0 0 0 0 0 0 0 0 0 0 0 0 0 0 0
0 0 0 0 0 0 0 0 0 0 0 0 0 0 0 0 0 0 0 0 0 0 0 0 0 0 0 0 0 0 0 0 0 0 0 0 0 0 0 0 0 0 0 0
0 0 0 0 0 0 0 0 0 0 0 0 0 0 0 0 0 0 0 0 0 0 0 0 0 0 0 0 0 0 0 0 0 0 0 0 0 0 0 0 0 0 0 0
0 0 0 0 0 0 0 0 0 0 0 0 0 0 0 0 0 0 0 0 0 0 0 0 0 0 0 0 0 0 0 0 0 0 0 0 0 0 0 0 0 0 0 0
0 0 0 0 0 0 0 0 0 0 0 0 0 0 0 0 0 0 0 0 0 0 0 0 0 0 0 0 0 0 0 0 0 0 0 0 0 0 0 0 0 0 0 0
0 0 0 0 0 0 0 0 0 0 0 0 0 0 0 0 0 0 0 0 0 0 0 0 0 0 0 0 0 0 0 0 0 0 0 0 0 0 0 0 0 0 0 0
0 0 0 0 0 0 0 0 0 0 0 0 0 0 0 0 0 0 0 0 0 0 0 0 0 0 0 0 0 0 0 0 0 0 0 0 0 0 0 0 0 0 0 0
0 0 0 0 0 0 0 0 0 0 0 0 0 0 0 0 0 0 0 0 0 0 0 0 0 0 0 0 0 0 0 0 0 0 0 0 0 0 0 0 0 0 0 0
0 0 0 0 0 0 0 0 0 0 0 0 0 0 0 0 0 0 0 0 0 0 0 0 0 0 0 0 0 0 0 0 0 0 0 0 0 0 0 0 0 0 0 0
0 0 0 0 0 0 0 0 0 0 0 0 0 0 0 0 0 0 0 0 0 0 0 0 0 0 0 0 0 0 0 0 0 0 0 0 0 0 0 0 0 0 0 0
0 0 0 0 0 0 0 0 0 0 0 0 0 0 0 0 0 0 0 0 0 0 0 0 0 0 0 0 0 0 0 0 0 0 0 0 0 0 0 0 0 0 0 0
0 0 0 0 0 0 0 0 0 0 0 0 0 0 0 0 0 0 0 0 0 0 0 0 0 0 0 0 0 0 0 0 0 0 0 0 0 0 0 0 0 0 0 0
0 0 0 0 0 0 0 0 0 0 0 0 0 0 0 0 0 0 0 0 0 0 0 0 0 0 0 0 0 0 0 0 0 0 0 0 0 0 0 0 0 0 0 0
0 0 0 0 0 0 0 0 0 0 0 0 0 0 0 0 0 0 0 0 0 0 0 0 0 0 0 0 0 0 0 0 0 0 0 0 0 0 0 0 0 0 0 0
0 0 0 0 0 0 0 0 0 0 0 0 0 0 0 0 0 0 0 0 0 0 0 0 0 0 0 0 0 0 0 0 0 0 0 0 0 0 0 0 0 0 0 0
0 0 0 0 0 0 0 0 0 0 0 0 0 0 0 0 0 0 0 0 0 0 0 0 0 0 0 0 0 0 0 0 0 0 0 0 0 0 0 0 0 0 0 0
0 0 0 0 0 0 0 0 0 0 0 0 0 0 0 0 0 0 0 0 0 0 0 0 0 0 0 0 0 0 0 0 0 0 0 0 0 0 0 0 0 0 0 0
0 0 0 0 0 0 0 0 0 0 0 0 0 0 0 0 0 0 0 0 0 0 0 0 0 0 0 0 0 0 0 0 0 0 0 0 0 0 0 0 0 0 0 0
0 0 0 0 0 0 0 0 0 0 0 0 0 0 0 0 0 0 0 0 0 0 0 0 0 0 0 0 0 0 0 0 0 0 0 0 0 0 0 0 0 0 0 0
0 0 0 0 0 0 0 0 0 0 0 0 0 0 0 0 0 0 0 0 0 0 0 0 0 0 0 0 0 0 0 0 0 0 0 0 0 0 0 0 0 0 0 0
0 0 0 0 0 0 0 0 0 0 0 0 0 0 0 0 0 0 0 0 0 0 0 0 0 0 0 0 0 0 0 0 0 0 0 0 0 0 0 0 0 0 0 0
0 0 0 0 0 0 0 0 0 0 0 0 0 0 0 0 0 0 0 0 0 0 0 0 0 0 0 0 0 0 0 0 0 0 0 0 0 0 0 0 0 0 0 0
0 0 0 0 0 0 0 0 0 0 0 0 0 0 0 0 0 0 0 0 0 0 0 0 0 0 0 0 0 0 0 0 0 0 0 0 0 0 0 0 0 0 0 0
0 0 0 0 0 0 0 0 0 0 0 0 0 0 0 0 0 0 0 0 0 0 0 0 0 0 0 0 0 0 0 0 0 0 0 0 0 0 0 0 0 0 0 0
0 0 0 0 0 0 0 0 0 0 0 0 0 0 0 0 0 0 0 0 0 0 0 0 0 0 0 0 0 0 0 0 0 0 0 0 0 0 0 0 0 0 0 0
0 0 0 0 0 0 0 0 0 0 0 0 0 0 0 0 0 0 0 0 0 0 0 0 0 0 0 0 0 0 0 0 0 0 0 0 0 0 0 0 0 0 0 0
0 0 0 0 0 0 0 0 0 0 0 0 0 0 0 0 0 0 0 0 0 0 0 0 0 0 0 0 0 0 0 0 0 0 0 0 0 0 0 0 0 0 0 0
Wind_Speed
5 6 4 4 4 4 3 1 5 5 7 10 13 15 14 14 16 17 16 14 13 9 6 6 6 6 5 4 3 2 2 3 4 5 5 4 4 5 5 4 5 5 5 6
5 4 5 6 5 2 1 1 4 7 5 8 12 12 14 14 16 16 14 13 11 9 8 7 6 4 3 3 4 4 4 5 5 4 4 5 5 6 5 5 5 6 6 7
5 6 4 5 4 3 5 6 9 8 10 18 17 16 14 13 15 16 14 12 10 9 8 6 4 3 2 3 4 4 3 4 4 4 5 6 6 6 6 5 5 7 7 6
3 3 5 8 6 3 4 4 9 15 21 19 16 12 11 14 16 16 14 11 10 8 6 4 3 1 1 4 5 4 3 4 5 5 6 7 7 7 6 5 5 5 6 6
2 2 6 6 4 2 3 1 11 24 22 22 22 20 11 10 14 15 12 9 8 7 6 4 2 1 3 5 4 4 5 6 7 7 7 8 8 7 5 4 3 4 4 5
2 3 6 5 5 3 9 4 3 20 25 24 17 12 8 10 13 12 9 7 8 6 5 3 2 3 3 4 4 5 6 7 7 7 7 8 8 6 3 1 4 5 6 4
3 5 8 5 3 4 5 6 6 6 8 6 5 9 14 14 12 9 8 8 8 6 4 3 4 4 4 4 4 6 6 6 6 6 6 5 4 4 5 6 6 6 5 4
2 5 9 3 2 6 6 6 11 10 10 15 19 19 15 14 11 10 9 8 6 4 3 5 5 4 3 4 5 5 5 6 7 7 6 7 8 8 7 6 5 5 5 6
4 7 7 5 3 8 13 16 13 12 16 20 18 17 14 11 10 9 7 5 4 3 4 5 4 3 2 4 4 5 6 6 6 7 8 7 7 6 5 4 4 4 4 5
7 9 7 4 7 11 16 17 16 15 16 19 18 15 14 11 7 6 5 4 2 2 2 2 1 1 1 2 4 5 6 5 5 7 7 6 5 4 4 4 4 5 6 6
8 7 3 2 8 12 15 17 17 15 16 17 18 16 12 8 6 5 4 2 2 2 1 0 1 1 1 3 5 6 5 5 6 6 5 4 3 3 3 2 3 5 6 6
6 4 3 6 8 15 17 17 18 18 14 13 15 12 9 7 5 4 3 2 2 1 1 1 1 2 3 3 5 5 5 6 5 5 4 3 3 4 5 6 8 8 9 9
4 2 4 9 12 17 20 19 18 17 15 12 10 11 8 6 4 3 3 2 1 1 2 1 3 4 4 4 6 6 5 6 5 5 4 4 4 4 4 6 9 7 11 12
3 7 13 16 18 19 21 20 18 16 13 12 9 8 7 6 5 4 3 1 1 3 3 3 5 5 3 5 6 6 7 9 7 5 4 4 4 4 3 4 5 6 8 12
10 10 14 17 18 18 17 17 17 14 12 9 7 8 8 7 5 3 2 2 4 6 6 6 6 5 4 6 6 7 7 6 5 4 4 4 4 4 4 5 6 6 7 9
12 13 15 17 17 15 16 16 14 11 9 8 7 7 6 5 3 2 3 4 6 6 5 6 5 3 4 5 6 6 8 11 7 5 4 4 4 4 6 6 7 7 7 7
10 10 12 13 12 13 12 11 10 9 8 8 7 6 5 4 3 3 4 5 6 5 4 4 4 4 5 6 6 6 7 7 9 6 4 4 4 5 6 7 7 7 7 8
8 7 8 10 12 12 11 10 10 10 8 7 7 6 5 4 2 2 4 5 6 4 3 4 5 5 6 6 5 6 6 5 4 4 3 4 4 4 5 7 8 8 7 8
10 9 8 10 12 12 10 10 9 8 8 8 7 5 3 3 2 3 5 6 5 3 2 5 8 7 6 7 7 6 6 6 4 4 3 4 4 4 4 5 6 7 8 7
10 10 11 10 10 11 11 10 9 7 7 7 7 5 4 4 4 6 7 5 2 1 2 6 7 6 6 7 8 6 6 6 5 4 3 3 3 3 4 5 6 7 7 8
9 8 10 11 10 10 10 10 9 7 6 7 7 5 4 4 5 5 6 4 1 4 6 8 6 4 5 7 8 6 6 6 5 4 3 2 3 3 4 5 6 6 7 7
6 6 8 10 10 9 8 8 8 8 7 6 5 4 4 4 3 3 3 3 3 6 5 4 4 6 8 8 5 5 6 6 5 4 3 3 3 3 4 5 6 6 7 7
8 8 8 9 9 8 8 8 8 7 7 6 5 3 3 2 3 5 4 2 4 7 5 4 8 13 12 7 5 6 6 6 5 5 4 5 5 5 5 5 5 6 6 7
9 9 8 7 8 9 8 6 6 5 5 4 4 4 4 3 2 2 4 7 8 9 6 9 15 14 11 6 5 6 6 5 5 5 5 4 4 5 5 5 5 5 6 7
9 8 8 8 7 5 5 6 6 5 5 3 3 4 3 4 5 4 4 6 9 9 6 9 14 13 7 5 6 6 5 5 5 5 5 5 5 5 5 5 5 5 5 5
7 6 6 6 5 4 4 4 4 3 3 2 2 1 2 3 5 4 4 5 7 8 6 5 6 7 5 5 6 6 5 6 6 6 5 5 6 5 5 5 6 5 5 5
7 6 5 4 3 3 4 4 3 2 2 2 1 1 5 6 5 5 5 5 5 6 6 6 5 5 5 5 6 5 5 5 5 5 5 5 5 5 5 6 5 5 5 5
Wind_Direction
247 259 281 284 300 342 7 200 188 202 174 169 155 142 134 128 128 127 127 127 127 127 120 104 90 81 74 61 47 29 342 313 290 284 292 304 300 279 275 292 298 296 294 288
326 322 314 294 276 242 232 184 147 121 95 128 121 118 127 132 131 129 132 130 127 119 107 96 90 79 57 18 349 334 314 297 294 300 300 296 278 268 283 300 296 294 290 284
299 313 347 286 277 230 200 189 153 156 152 136 133 139 143 141 134 134 132 125 117 110 105 103 109 104 45 331 311 300 282 282 296 303 295 284 274 272 286 290 284 292 294 300
265 3 254 252 297 269 188 190 145 134 141 141 134 121 116 125 128 128 124 118 115 114 119 142 150 115 323 297 282 255 255 276 284 283 280 280 282 277 278 275 279 296 318 339
191 218 276 292 335 14 107 8 146 136 133 126 119 98 86 109 120 121 120 123 126 136 149 144 127 292 295 284 262 256 262 268 268 267 268 271 273 273 266 266 307 356 11 13
172 183 235 251 315 340 93 53 128 140 142 141 128 122 141 129 117 114 116 121 127 132 117 113 236 261 270 269 267 271 272 271 274 277 277 273 275 286 286 30 46 44 26 6
192 221 253 250 303 29 123 181 122 123 137 130 97 120 134 131 121 123 124 113 114 121 131 207 243 250 266 284 285 279 289 301 312 319 319 323 350 16 49 65 53 32 7 348
234 214 248 269 107 151 174 117 106 102 104 103 108 116 125 127 129 123 105 103 119 143 206 246 250 240 268 286 282 303 328 342 346 357 23 53 64 61 59 56 41 12 355 345
256 246 275 285 191 148 131 116 115 123 128 123 122 126 127 121 111 105 116 140 153 182 233 264 260 222 252 287 311 346 1 1 10 40 50 57 66 62 53 42 30 5 352 337
264 264 270 277 145 143 131 127 130 136 131 125 124 123 116 109 113 126 136 144 147 179 229 281 292 156 208 326 17 32 25 21 40 60 59 52 57 61 58 36 18 359 350 339
260 264 272 174 144 138 127 124 123 122 120 120 120 121 122 126 136 139 142 139 143 143 101 328 255 298 354 42 53 43 39 44 51 67 78 64 52 45 49 17 25 21 360 341
254 241 186 154 139 127 119 117 119 118 112 115 122 126 129 132 136 134 128 118 103 38 16 339 356 15 33 71 72 68 60 52 58 72 75 61 34 4 348 347 4 36 18 6
262 324 106 115 111 113 110 109 109 110 115 114 114 124 125 123 121 112 117 133 125 353 19 66 60 44 59 90 81 80 81 74 71 64 57 49 38 29 6 353 6 22 5 2
63 89 103 107 108 106 104 102 99 98 100 106 110 113 111 107 105 118 152 186 8 23 59 73 58 44 70 97 82 78 80 84 82 65 58 48 32 17 10 4 359 358 356 357
98 106 113 113 108 106 106 104 101 102 106 106 108 110 112 113 118 131 140 55 55 61 65 63 55 41 77 96 84 83 91 94 81 70 57 43 24 13 14 16 13 4 359 359
121 115 115 113 112 111 108 107 110 115 120 119 115 118 122 120 107 69 48 77 90 83 74 66 53 47 97 111 90 85 99 103 91 75 58 40 22 19 24 22 18 15 12 5
111 114 118 116 117 116 115 117 121 127 132 131 131 130 118 100 80 63 66 88 101 96 82 70 39 38 89 118 108 103 107 102 93 80 64 48 32 24 25 23 20 17 10 359
115 112 116 122 127 123 120 119 122 129 137 140 131 125 118 111 112 104 102 97 84 62 41 40 37 49 85 112 107 106 112 109 100 90 71 54 42 27 25 27 22 18 8 359
113 105 101 113 126 127 125 124 124 125 128 129 127 126 113 90 98 123 116 107 102 82 360 34 54 64 85 103 103 102 112 116 107 93 77 65 49 29 22 19 19 18 11 7
103 99 104 111 121 124 125 126 124 126 131 128 121 109 80 63 85 114 119 122 157 182 53 71 70 70 85 95 95 91 99 109 113 106 87 64 46 28 16 15 19 21 19 14
115 113 111 115 120 122 124 127 128 132 135 129 126 123 98 83 92 106 109 106 81 89 82 78 73 80 93 101 94 90 88 88 92 99 99 81 57 41 27 18 16 19 21 20
98 109 117 124 126 123 124 126 128 129 128 128 128 116 87 74 89 108 114 144 143 113 89 71 72 95 107 97 90 89 85 82 80 78 77 69 55 40 29 24 20 17 17 18
94 95 106 119 124 120 115 119 125 126 127 131 136 119 85 84 138 137 136 149 121 106 92 80 98 101 96 89 88 85 83 82 80 78 74 68 61 54 48 42 35 27 22 20
110 104 101 100 102 104 106 113 118 124 128 127 122 107 105 110 115 138 137 134 121 103 89 100 101 97 93 89 88 85 82 82 81 79 76 71 65 59 53 47 40 30 26 24
119 115 112 108 107 114 123 117 107 110 112 95 77 82 117 145 146 151 134 127 119 103 97 111 111 103 94 91 88 86 85 88 91 85 76 72 68 63 57 50 42 34 28 24
123 122 124 130 134 135 129 117 113 115 111 95 63 89 134 130 132 135 127 124 114 108 112 113 110 103 100 97 94 91 90 91 87 85 87 82 75 69 60 52 46 38 29 24
116 114 113 110 116 124 122 117 115 115 125 130 137 172 149 146 147 145 129 111 97 104 115 116 113 110 105 101 98 97 96 95 94 92 90 86 81 76 69 63 51 40 32 30